1528362000.2,25742,20.31,74348.0,16.19,6.47,6.33,0,*47
1528362001.43,25743,20.25,74348.0,16.19,6.69,6.69,0,*45
1528362002.65,25744,20.25,74348.5,16.19,6.97,6.87,0,*43
1528362003.9,25745,20.31,74348.8,16.19,6.53,6.47,0,*46
1528362005.14,25746,20.31,74346.8,16.19,6.47,6.39,0,*49
1528362006.36,25747,20.31,74350.0,16.19,6.47,6.33,0,*42
1528362007.61,25748,20.25,74348.3,16.19,6.65,6.47,0,*4E
1528362008.8,25749,20.25,74346.0,16.15,6.29,6.29,0,*43
1528362010.03,25750,20.25,74346.0,16.17,6.83,6.73,0,*46
1528362011.26,25751,20.25,74348.5,16.17,6.75,6.61,0,*4D
1528362012.46,25752,20.31,74350.8,16.15,6.29,6.25,0,*45
1528362013.65,25753,20.25,74350.0,16.15,6.93,6.97,0,*4C
1528362014.83,25754,20.31,74348.5,16.15,6.75,6.75,0,*4F
1528362016.04,25755,20.25,74346.8,16.15,6.75,6.73,0,*48
1528362017.31,25756,20.25,74350.3,16.13,6.47,6.47,0,*4B
1528362018.55,25757,20.25,74346.8,16.13,6.35,6.21,0,*4F
1528362019.77,25758,20.25,74350.0,16.13,6.21,6.11,0,*46
1528362020.99,25759,20.25,74346.5,16.13,6.11,5.99,0,*47
1528362022.22,25760,20.25,74346.8,16.11,5.93,5.93,0,*4C
1528362023.42,25761,20.25,74348.5,16.07,6.75,6.65,0,*4B
1528362024.64,25762,20.25,74346.5,16.11,6.57,6.61,0,*4B
1528362025.89,25763,20.25,74350.0,16.05,6.39,6.39,0,*4A
1528362027.07,25764,20.25,74346.8,16.07,6.25,6.07,0,*4F
1528362028.3,25765,20.31,74348.5,16.05,6.39,6.33,0,*46
1528362029.5,25766,20.25,74346.0,16.07,6.87,6.79,0,*4C
1528362030.73,25767,20.25,74350.3,16.05,6.29,6.17,0,*43
1528362031.99,25768,20.31,74348.8,16.05,6.51,6.43,0,*42
1528362033.19,25769,20.31,74348.5,16.05,6.07,6.07,0,*40
1528362034.39,25770,20.31,74350.5,16.03,6.03,5.93,0,*44
1528362035.65,25771,20.25,74344.8,16.01,6.35,6.35,0,*4D
1528362036.86,25772,20.25,74346.5,16.05,6.93,6.97,0,*4E
1528362038.08,25773,20.25,74348.8,16.01,6.47,6.29,0,*47
1528362039.32,25774,20.25,74346.5,16.01,6.57,6.57,0,*48
1528362040.52,25775,20.25,74344.5,16.01,6.83,6.83,0,*49
1528362041.71,25776,20.31,74348.5,16.01,6.83,6.83,0,*4A
1528362042.93,25777,20.25,74348.3,16.01,7.15,7.05,0,*4A
1528362044.12,25778,20.25,74350.3,16.01,7.09,7.09,0,*44
1528362045.31,25779,20.31,74348.5,16.03,7.29,7.29,0,*47
1528362046.48,25780,20.25,74346.5,16.03,7.05,6.93,0,*4F
1528362047.65,25781,20.31,74348.5,16.03,6.83,6.79,0,*45
1528362048.84,25782,20.31,74348.5,16.03,6.91,6.83,0,*40
1528362050.03,25783,20.25,74348.8,16.03,7.29,7.29,0,*42
1528362051.25,25784,20.25,74346.0,16.03,7.19,7.15,0,*49
1528362052.43,25785,20.31,74348.3,16.03,7.41,7.29,0,*4A
1528362053.6,25786,20.25,74350.0,16.03,7.41,7.41,0,*47
1528362054.86,25787,20.31,74350.3,16.05,7.65,7.61,0,*44
1528362056.06,25788,20.25,74350.0,16.07,7.79,7.77,0,*43
1528362057.23,25789,20.25,74348.3,16.07,7.45,7.45,0,*4C
1528362058.48,25790,20.25,74346.5,16.05,7.11,7.11,0,*46
1528362059.68,25791,20.31,74350.8,16.07,7.11,7.09,0,*4C
1528362060.91,25792,20.25,74348.5,16.05,6.87,6.75,0,*49
1528362062.13,25793,20.31,74350.0,16.07,7.23,7.11,0,*46
1528362063.3,25794,20.31,74350.8,16.07,7.01,6.97,0,*4E
1528362064.47,25795,20.31,74350.8,16.07,7.37,7.33,0,*45
1528362065.69,25796,20.25,74344.3,16.07,7.47,7.47,0,*42
1528362066.92,25797,20.25,74346.3,16.11,7.87,7.95,0,*47
1528362068.15,25798,20.25,74348.3,16.07,7.27,7.27,0,*4C
1528362069.33,25799,20.31,74348.3,16.11,7.29,7.37,0,*45
1528362070.53,25800,20.25,74346.5,16.11,7.69,7.79,0,*44
1528362071.75,25801,20.25,74346.8,16.13,7.37,7.29,0,*49
1528362072.98,25802,20.25,74346.3,16.11,7.61,7.69,0,*4F
1528362074.16,25803,20.25,74346.0,16.11,7.51,7.59,0,*4E
1528362075.37,25804,20.25,74348.5,16.11,7.59,7.61,0,*4A
1528362076.55,25805,20.31,74350.5,16.11,7.79,7.79,0,*40
1528362077.79,25806,20.31,74350.5,16.15,7.77,7.83,0,*4C
1528362079.03,25807,20.25,74346.0,16.15,7.77,7.91,0,*4E
1528362080.24,25808,20.25,74346.5,16.15,7.65,7.55,0,*4A
1528362081.42,25809,20.31,74346.8,16.15,7.29,7.33,0,*43
1528362082.66,25810,20.25,74346.5,16.13,7.37,7.27,0,*47
1528362083.89,25811,20.31,74348.3,16.15,7.15,7.19,0,*4D
1528362085.11,25812,20.31,74348.3,16.15,6.83,6.87,0,*46
1528362086.3,25813,20.25,74340.5,16.15,6.25,6.29,0,*4F
1528362087.52,25814,20.31,74346.8,16.11,6.39,6.39,0,*40
1528362088.78,25815,20.25,74348.3,16.13,6.61,6.69,0,*4B
1528362089.98,25816,20.31,74348.3,16.11,6.91,7.01,0,*4A
1528362091.18,25817,20.25,74346.8,16.11,6.93,7.15,0,*4C
1528362092.39,25818,20.25,74344.3,16.11,7.27,7.37,0,*4D
1528362093.59,25819,20.25,74348.3,16.11,7.47,7.51,0,*4A
1528362094.8,25820,20.31,74350.5,16.11,7.15,7.29,0,*48
1528362095.99,25821,20.25,74346.5,16.11,7.41,7.47,0,*40
1528362097.23,25822,20.31,74346.0,16.11,7.61,7.73,0,*46
1528362098.45,25823,20.31,74350.8,16.11,7.73,7.87,0,*4F
1528362099.67,25824,20.25,74348.3,16.13,7.41,7.51,0,*40
1528362100.91,25825,20.31,74348.5,16.13,7.29,7.47,0,*48
1528362102.15,25826,20.25,74348.5,16.13,7.27,7.29,0,*4D
1528362103.33,25827,20.25,74348.5,16.15,6.83,6.83,0,*44
1528362104.57,25828,20.25,74346.5,16.13,6.13,6.25,0,*48
1528362105.78,25829,20.25,74346.3,16.11,6.73,6.83,0,*41
1528362107.01,25830,20.31,74348.0,16.13,6.91,6.79,0,*42
1528362108.24,25831,20.31,74348.5,16.07,6.43,6.43,0,*40
1528362109.42,25832,20.31,74350.0,16.07,6.97,7.09,0,*45
1528362110.6,25833,20.25,74344.5,16.11,7.41,7.51,0,*44
1528362111.81,25834,20.25,74346.0,16.13,7.29,7.37,0,*4F
1528362113.0,25835,20.25,74346.5,16.11,7.29,7.37,0,*4C
1528362114.18,25836,20.25,74346.3,16.11,7.29,7.41,0,*4E
1528362115.35,25837,20.31,74348.5,16.11,7.37,7.41,0,*40
1528362116.56,25838,20.31,74350.8,16.11,7.59,7.69,0,*4D
1528362117.78,25839,20.25,74346.5,16.11,7.73,7.87,0,*44
1528362118.99,25840,20.25,74344.8,16.11,7.59,7.73,0,*49
1528362120.21,25841,20.31,74348.5,16.13,7.29,7.41,0,*4C
1528362121.44,25842,20.25,74348.5,16.13,7.47,7.59,0,*4E
1528362122.7,25843,20.31,74350.8,16.13,7.11,7.19,0,*48
1528362123.91,25844,20.31,74348.0,16.13,7.37,7.41,0,*46
1528362125.1,25845,20.31,74348.5,16.15,7.41,7.45,0,*44
1528362126.28,25846,20.31,74346.0,16.15,7.33,7.33,0,*43
1528362127.49,25847,20.31,74346.8,16.15,7.05,7.15,0,*43
1528362128.67,25848,20.25,74346.0,16.15,6.83,6.83,0,*4D
1528362129.86,25849,20.25,74346.8,16.15,6.93,7.09,0,*4E
1528362131.07,25850,20.31,74350.3,16.13,7.41,7.51,0,*43
1528362132.26,25851,20.31,74348.3,16.15,7.51,7.55,0,*41
1528362133.44,25852,20.31,74346.5,16.15,7.41,7.33,0,*43
1528362134.62,25853,20.31,74350.0,16.15,7.45,7.41,0,*43
1528362135.84,25854,20.31,74348.3,16.15,7.23,7.29,0,*4A
1528362137.06,25855,20.25,74344.8,16.17,6.97,6.97,0,*43
1528362138.27,25856,20.31,74348.3,16.15,7.15,7.09,0,*4F
1528362139.45,25857,20.25,74346.0,16.15,7.05,7.05,0,*43
1528362140.69,25858,20.31,74348.3,16.15,6.73,6.73,0,*4C
1528362141.88,25859,20.31,74348.0,16.15,6.97,6.97,0,*4D
1528362143.07,25860,20.25,74346.0,16.15,7.29,7.33,0,*4C
1528362144.28,25861,20.31,74348.0,16.15,7.51,7.61,0,*45
1528362145.5,25862,20.25,74344.0,16.15,7.09,7.15,0,*48
1528362146.77,25863,20.25,74346.8,16.13,6.47,6.51,0,*45
1528362147.97,25864,20.25,74344.0,16.13,7.01,6.93,0,*4F
1528362149.23,25865,20.31,74350.8,16.13,6.69,6.69,0,*44
1528362150.46,25866,20.31,74350.3,16.11,6.51,6.51,0,*45
1528362151.72,25867,20.31,74348.0,16.13,6.61,6.61,0,*46
1528362152.89,25868,20.25,74344.0,16.11,6.79,6.79,0,*4B
1528362154.16,25869,20.31,74350.0,16.13,7.19,7.15,0,*44
1528362155.36,25870,20.25,74344.8,16.11,6.93,6.91,0,*40
1528362156.57,25871,20.31,74350.8,16.13,7.41,7.37,0,*40
1528362157.81,25872,20.31,74344.8,16.11,7.73,7.73,0,*40
1528362159.01,25873,20.31,74350.5,16.13,7.41,7.41,0,*43
1528362160.23,25874,20.25,74348.3,16.13,7.05,6.93,0,*4A
1528362161.43,25875,20.31,74348.8,16.13,7.01,7.01,0,*45
1528362162.69,25876,20.31,74348.8,16.13,7.27,7.19,0,*4B
1528362163.91,25877,20.25,74346.5,16.13,7.51,7.51,0,*47
1528362165.14,25878,20.31,74350.5,16.15,7.73,7.83,0,*41
1528362166.36,25879,20.31,74348.8,16.17,7.29,7.45,0,*47
1528362167.55,25880,20.31,74350.8,16.15,7.51,7.51,0,*49
1528362168.81,25881,20.25,74348.5,16.17,7.23,7.23,0,*4A
1528362170.02,25882,20.31,74348.3,16.17,7.45,7.55,0,*48
1528362171.26,25883,20.25,74344.3,16.19,7.11,7.19,0,*4E
1528362172.51,25884,20.31,74346.0,16.21,7.47,7.47,0,*4A
1528362173.73,25885,20.31,74348.8,16.19,7.59,7.69,0,*43
1528362174.97,25886,20.31,74346.5,16.19,7.23,7.23,0,*43
1528362176.19,25887,20.31,74350.8,16.19,6.79,6.87,0,*43
1528362177.43,25888,20.31,74346.3,16.19,6.87,6.91,0,*4A
1528362178.65,25889,20.25,74344.0,16.19,7.09,7.11,0,*45
1528362179.89,25890,20.25,74344.8,16.19,7.27,7.23,0,*40
1528362181.1,25891,20.31,74348.8,16.21,7.37,7.29,0,*41
1528362182.34,25892,20.31,74348.3,16.19,6.91,6.87,0,*41
1528362183.6,25893,20.25,74344.8,16.21,7.27,7.11,0,*49
1528362184.84,25894,20.31,74346.0,16.19,7.19,7.19,0,*40
1528362186.03,25895,20.31,74350.3,16.19,7.59,7.59,0,*41
1528362187.28,25896,20.25,74344.3,16.23,7.73,7.73,0,*4B
1528362188.46,25897,20.31,74348.3,16.23,7.45,7.45,0,*4A
1528362189.69,25898,20.31,74348.3,16.23,7.19,7.19,0,*45
1528362190.89,25899,20.31,74350.0,16.23,6.97,6.97,0,*44
1528362192.08,25900,20.31,74348.3,16.23,7.41,7.29,0,*4B
1528362193.32,25901,20.31,74348.5,16.23,7.73,7.77,0,*40
1528362194.56,25902,20.25,74346.5,16.23,7.15,7.15,0,*47
1528362195.8,25903,20.31,74344.8,16.27,6.91,6.91,0,*42
1528362197.01,25904,20.31,74346.5,16.23,7.15,7.09,0,*4C
1528362198.19,25905,20.31,74348.5,16.23,6.93,6.93,0,*40
1528362199.4,25906,20.31,74350.0,16.21,7.37,7.37,0,*41
1528362200.65,25907,20.31,74350.3,16.23,7.73,7.77,0,*46
1528362201.9,25908,20.31,74346.0,16.21,7.73,7.83,0,*40
1528362203.14,25909,20.31,74346.5,16.21,7.95,8.05,0,*48
1528362204.33,25910,20.31,74348.3,16.27,7.55,7.45,0,*41
1528362205.55,25911,20.31,74344.8,16.23,7.55,7.61,0,*42
1528362206.75,25912,20.31,74350.8,16.27,7.55,7.55,0,*42
1528362207.99,25913,20.31,74350.5,16.27,7.91,7.91,0,*43
1528362209.21,25914,20.31,74350.3,16.27,7.77,7.79,0,*4A
1528362210.4,25915,20.25,74346.8,16.27,8.01,8.05,0,*41
1528362211.61,25916,20.31,74348.0,16.29,7.55,7.59,0,*44
1528362212.85,25917,20.31,74350.0,16.29,7.59,7.65,0,*46
1528362214.12,25918,20.31,74346.3,16.29,7.65,7.77,0,*45
1528362215.38,25919,20.31,74346.5,16.29,7.23,7.23,0,*47
1528362216.61,25920,20.31,74346.3,16.29,7.87,7.97,0,*4C
1528362217.85,25921,20.31,74352.0,16.31,7.95,7.91,0,*41
1528362219.07,25922,20.31,74348.0,16.29,7.09,6.97,0,*49
1528362220.32,25923,20.31,74350.8,16.29,7.47,7.47,0,*4E
1528362221.56,25924,20.31,74344.8,16.29,7.59,7.65,0,*46
1528362222.82,25925,20.31,74348.0,16.29,7.19,7.11,0,*40
1528362224.06,25926,20.31,74348.3,16.31,6.91,6.91,0,*42
1528362225.28,25927,20.31,74350.0,16.23,7.29,7.27,0,*4E
1528362226.52,25928,20.25,74346.3,16.27,7.11,7.11,0,*4B
1528362227.76,25929,20.31,74348.5,16.23,7.27,7.27,0,*4E
1528362228.96,25930,20.31,74348.3,16.27,7.29,7.29,0,*42
1528362230.13,25931,20.31,74350.0,16.23,7.33,7.33,0,*47
1528362231.32,25932,20.31,74348.8,16.23,7.97,8.09,0,*4C
1528362232.56,25933,20.31,74348.3,16.29,7.79,7.87,0,*4E
1528362233.74,25934,20.31,74350.0,16.27,8.01,8.23,0,*46
1528362234.96,25935,20.31,74346.5,16.27,8.13,8.15,0,*41
1528362236.22,25936,20.31,74350.8,16.29,7.91,7.91,0,*4A
1528362237.44,25937,20.25,74346.0,16.29,7.55,7.55,0,*4B
1528362238.7,25938,20.31,74348.3,16.29,7.65,7.69,0,*48
1528362239.94,25939,20.31,74348.3,16.29,7.47,7.45,0,*47
1528362241.13,25940,20.25,74344.0,16.27,6.97,7.01,0,*4B
1528362242.34,25941,20.31,74348.3,16.27,7.15,7.33,0,*40
1528362243.55,25942,20.31,74346.8,16.27,7.47,7.55,0,*44
1528362244.79,25943,20.31,74348.3,16.23,7.19,7.27,0,*4F
1528362246.0,25944,20.25,74344.5,16.23,7.11,7.09,0,*4C
1528362247.18,25945,20.31,74348.5,16.23,7.05,7.09,0,*48
1528362248.42,25946,20.25,74344.8,16.23,6.65,6.73,0,*40
1528362249.68,25947,20.31,74350.5,16.21,7.15,7.15,0,*44
1528362250.94,25948,20.31,74348.0,16.21,7.15,7.27,0,*4A
1528362252.13,25949,20.31,74348.8,16.19,6.97,7.01,0,*4F
1528362253.34,25950,20.31,74350.8,16.19,7.09,7.23,0,*41
1528362254.58,25951,20.31,74350.0,16.19,7.23,7.23,0,*48
1528362255.82,25952,20.31,74346.5,16.19,7.19,7.23,0,*42
1528362257.05,25953,20.25,74344.0,16.21,6.91,6.93,0,*43
1528362258.24,25954,20.31,74350.0,16.19,7.37,7.45,0,*48
1528362259.45,25955,20.31,74348.5,16.19,7.69,7.79,0,*4D
1528362260.67,25956,20.31,74348.5,16.19,7.47,7.59,0,*40
1528362261.91,25957,20.31,74350.0,16.19,7.69,7.77,0,*41
1528362263.13,25958,20.31,74348.3,16.19,7.95,8.05,0,*47
1528362264.32,25959,20.31,74348.3,16.19,7.55,7.59,0,*4C
1528362265.56,25960,20.25,74346.8,16.21,7.47,7.59,0,*4E
1528362266.75,25961,20.31,74348.5,16.19,7.55,7.55,0,*4B
1528362268.0,25962,20.31,74348.3,16.19,7.65,7.77,0,*4B
1528362269.21,25963,20.31,74348.5,16.19,7.79,7.87,0,*48
1528362270.42,25964,20.31,74348.3,16.21,8.05,8.09,0,*49
1528362271.64,25965,20.31,74346.5,16.19,7.79,7.87,0,*4E
1528362272.87,25966,20.31,74348.3,16.19,7.77,7.87,0,*43
1528362274.13,25967,20.31,74350.0,16.21,7.15,7.15,0,*46
1528362275.38,25968,20.31,74348.8,16.19,7.27,7.27,0,*42
1528362276.59,25969,20.25,74346.3,16.19,7.23,7.33,0,*42
1528362277.77,25970,20.31,74346.5,16.19,7.01,7.09,0,*43
1528362278.98,25971,20.31,74350.5,16.17,7.45,7.55,0,*45
1528362280.23,25972,20.31,74348.8,16.17,7.55,7.77,0,*47
1528362281.47,25973,20.31,74350.5,16.17,7.51,7.73,0,*46
1528362282.7,25974,20.31,74348.8,16.15,7.65,7.83,0,*4B
1528362283.89,25975,20.31,74348.8,16.19,7.33,7.41,0,*4B
1528362285.1,25976,20.31,74350.5,16.19,7.23,7.33,0,*4C
1528362286.31,25977,20.31,74348.0,16.19,7.01,7.11,0,*4D
1528362287.52,25978,20.31,74344.8,16.15,6.87,6.93,0,*4A
1528362288.71,25979,20.25,74344.8,16.15,6.93,6.97,0,*4A
1528362289.97,25980,20.31,74350.5,16.17,7.23,7.23,0,*4A
1528362291.18,25981,20.31,74350.3,16.19,6.91,7.01,0,*4D
1528362292.36,25982,20.31,74350.0,16.15,6.75,6.75,0,*4A
1528362293.56,25983,20.31,74350.5,16.15,6.29,6.29,0,*4B
1528362294.79,25984,20.31,74348.5,16.13,7.01,7.11,0,*4B
1528362296.01,25985,20.31,74350.5,16.11,6.73,6.73,0,*49
1528362297.21,25986,20.31,74350.8,16.11,7.01,7.11,0,*4B
1528362298.4,25987,20.31,74346.5,16.11,7.41,7.47,0,*4D
1528362299.61,25988,20.31,74350.5,16.13,7.37,7.41,0,*47
1528362300.84,25989,20.31,74348.8,16.11,7.19,7.19,0,*45
1528362302.05,25990,20.31,74350.8,16.13,7.51,7.59,0,*47
1528362303.28,25991,20.31,74348.0,16.11,7.19,7.27,0,*41
1528362304.5,25992,20.31,74350.0,16.11,6.57,6.61,0,*4A
1528362305.73,25993,20.31,74350.5,16.11,6.51,6.57,0,*48
1528362306.91,25994,20.31,74350.0,16.07,6.33,6.33,0,*4E
1528362308.12,25995,20.31,74350.5,16.05,6.29,6.33,0,*46
1528362309.38,25996,20.31,74344.8,16.05,6.51,6.61,0,*4D
1528362310.59,25997,20.31,74348.5,16.01,6.69,6.79,0,*4A
1528362311.76,25998,20.31,74346.0,16.03,7.09,7.05,0,*4A
1528362312.96,25999,20.31,74348.5,16.03,6.73,6.79,0,*4D
1528362314.15,26000,20.31,74348.0,16.01,7.01,7.01,0,*4F
1528362315.37,26001,20.31,74348.8,16.01,6.11,6.13,0,*4C
1528362316.62,26002,20.31,74350.5,16.01,6.47,6.35,0,*48
1528362317.85,26003,20.31,74350.5,16.01,6.13,6.21,0,*4D
1528362319.06,26004,20.31,74348.8,15.97,6.29,6.33,0,*4C
1528362320.31,26005,20.31,74348.5,15.97,6.53,6.65,0,*43
1528362321.56,26006,20.31,74348.3,15.97,6.53,6.51,0,*47
1528362322.79,26007,20.31,74350.8,15.97,6.29,6.39,0,*45
1528362324.01,26008,20.31,74350.0,15.95,6.53,6.51,0,*4B
1528362325.22,26009,20.31,74350.3,15.95,6.65,6.75,0,*49
1528362326.45,26010,20.31,74348.3,15.95,6.43,6.43,0,*40
1528362327.67,26011,20.31,74348.0,15.95,6.47,6.57,0,*40
1528362328.92,26012,20.31,74348.8,15.93,6.47,6.51,0,*43
1528362330.17,26013,20.31,74348.3,15.93,6.47,6.51,0,*42
1528362331.34,26014,20.31,74350.5,15.91,6.93,7.05,0,*4E
1528362332.56,26015,20.31,74350.3,15.93,7.05,7.15,0,*42
1528362333.76,26016,20.31,74348.8,15.91,7.27,7.41,0,*42
1528362334.97,26017,20.25,74344.8,15.91,7.27,7.37,0,*42
1528362336.14,26018,20.31,74348.3,15.91,7.37,7.41,0,*4D
1528362337.35,26019,20.31,74350.0,15.93,7.41,7.47,0,*49
1528362338.6,26020,20.31,74346.5,15.93,7.15,7.15,0,*45
1528362339.84,26021,20.31,74350.5,15.93,7.15,7.19,0,*48
1528362341.07,26022,20.31,74344.8,15.91,7.15,7.19,0,*49
1528362342.25,26023,20.31,74348.0,15.91,7.29,7.29,0,*44
1528362343.49,26024,20.31,74344.8,15.93,7.15,7.15,0,*41
1528362344.71,26025,20.31,74350.5,15.93,7.37,7.47,0,*47
1528362345.93,26026,20.31,74348.0,15.95,7.73,7.91,0,*49
1528362347.16,26027,20.31,74348.0,15.95,7.77,7.87,0,*4B
1528362348.36,26028,20.31,74350.8,15.95,7.79,7.91,0,*4D
1528362349.59,26029,20.31,74350.0,15.95,7.61,7.69,0,*42
1528362350.78,26030,20.31,74344.8,15.97,7.01,7.01,0,*40
1528362352.04,26031,20.31,74348.0,15.97,7.61,7.77,0,*46
1528362353.27,26032,20.31,74348.0,15.97,7.51,7.61,0,*41
1528362354.48,26033,20.31,74348.0,15.97,6.97,6.97,0,*43
1528362355.67,26034,20.31,74350.5,15.97,7.41,7.45,0,*40
1528362356.92,26035,20.31,74350.0,15.97,7.77,7.87,0,*4A
1528362358.15,26036,20.31,74350.3,15.99,7.91,8.13,0,*4D
1528362359.38,26037,20.31,74346.8,15.99,7.83,7.83,0,*49
1528362360.61,26038,20.31,74350.3,15.99,7.69,7.73,0,*4D
1528362361.86,26039,20.31,74350.3,16.01,7.61,7.69,0,*4D
1528362363.11,26040,20.31,74350.5,16.01,7.83,7.95,0,*4C
1528362364.34,26041,20.25,74344.5,16.01,7.95,8.15,0,*4D
1528362365.54,26042,20.31,74348.0,15.99,7.79,7.83,0,*4E
1528362366.72,26043,20.31,74348.3,15.99,8.01,8.23,0,*4A
1528362367.97,26044,20.31,74350.8,16.01,7.83,7.95,0,*48
1528362369.17,26045,20.31,74348.0,16.03,7.87,8.05,0,*49
1528362370.39,26046,20.31,74344.8,16.03,7.87,7.95,0,*4C
1528362371.56,26047,20.31,74348.8,16.03,7.97,7.97,0,*4E
1528362372.79,26048,20.31,74350.8,16.05,8.23,8.33,0,*46
1528362374.02,26049,20.31,74350.3,16.05,8.09,8.13,0,*4D
1528362375.19,26050,20.31,74346.3,16.07,7.45,7.55,0,*4D
1528362376.4,26051,20.31,74346.3,16.05,7.29,7.29,0,*4F
1528362377.61,26052,20.31,74348.0,16.05,7.29,7.41,0,*42
1528362378.84,26053,20.31,74348.0,16.05,7.55,7.61,0,*4A
1528362380.1,26054,20.31,74348.3,16.05,7.77,7.73,0,*4E
1528362381.33,26055,20.31,74348.0,16.05,8.19,8.33,0,*43
1528362382.53,26056,20.31,74350.3,16.07,8.01,8.13,0,*49
1528362383.76,26057,20.31,74346.3,16.05,7.77,7.79,0,*47
1528362384.98,26058,20.31,74346.8,16.07,7.27,7.23,0,*40
1528362386.18,26059,20.31,74348.0,16.07,7.47,7.45,0,*47
1528362387.41,26060,20.31,74348.5,16.07,7.69,7.77,0,*40
1528362388.61,26061,20.31,74350.5,16.05,8.09,8.23,0,*44
1528362389.79,26062,20.31,74346.5,16.11,8.27,8.27,0,*4A
1528362391.0,26063,20.31,74348.3,16.11,7.73,7.79,0,*41
1528362392.22,26064,20.31,74346.0,16.11,7.47,7.47,0,*4C
1528362393.46,26065,20.31,74348.3,16.11,7.61,7.69,0,*45
1528362394.63,26066,20.31,74350.0,16.11,7.37,7.41,0,*4F
1528362395.84,26067,20.31,74348.0,16.11,7.29,7.27,0,*41
1528362397.01,26068,20.31,74346.8,16.11,7.41,7.41,0,*40
1528362398.19,26069,20.31,74346.3,16.11,7.59,7.51,0,*49
1528362399.37,26070,20.31,74346.5,16.11,7.59,7.59,0,*49
1528362400.54,26071,20.31,74348.0,16.11,7.51,7.59,0,*40
1528362401.74,26072,20.31,74346.0,16.07,7.33,7.23,0,*4D
1528362402.92,26073,20.31,74346.3,16.11,7.51,7.59,0,*42
1528362404.12,26074,20.31,74350.0,16.11,7.95,8.05,0,*4B
1528362405.39,26075,20.31,74350.8,16.13,7.61,7.69,0,*46
1528362406.63,26076,20.31,74346.5,16.13,7.73,7.79,0,*47
1528362407.84,26077,20.31,74346.5,16.13,7.97,8.09,0,*44
1528362409.07,26078,20.31,74344.5,16.11,7.11,7.11,0,*41
1528362410.3,26079,20.31,74348.0,16.13,7.41,7.47,0,*44
1528362411.5,26080,20.31,74348.8,16.11,7.05,7.11,0,*43
1528362412.7,26081,20.31,74346.8,16.11,7.47,7.59,0,*48
1528362413.91,26082,20.31,74348.3,16.13,7.97,7.97,0,*46
1528362415.12,26083,20.31,74348.8,16.11,8.19,8.37,0,*49
1528362416.36,26084,20.31,74350.5,16.15,7.73,7.73,0,*46
1528362417.57,26085,20.31,74344.3,16.17,7.45,7.45,0,*45
1528362418.81,26086,20.31,74344.8,16.17,7.29,7.23,0,*4C
1528362420.02,26087,20.31,74346.8,16.17,7.51,7.41,0,*46
1528362421.22,26088,20.31,74348.3,16.17,7.41,7.41,0,*48
1528362422.48,26089,20.31,74348.3,16.17,7.87,7.91,0,*4E
1528362423.72,26090,20.31,74346.3,16.19,8.33,8.37,0,*4B
1528362424.94,26091,20.31,74346.3,16.21,7.51,7.51,0,*45
1528362426.16,26092,20.31,74348.5,16.19,7.79,7.77,0,*43
1528362427.39,26093,20.31,74348.5,16.21,7.51,7.47,0,*40
1528362428.65,26094,20.31,74348.8,16.21,7.69,7.73,0,*4B
1528362429.89,26095,20.31,74348.0,16.21,8.27,8.51,0,*40
1528362431.07,26096,20.31,74350.0,16.23,8.61,8.65,0,*44
1528362432.29,26097,20.31,74348.3,16.23,8.13,8.19,0,*4B
1528362433.51,26098,20.31,74348.0,16.27,6.97,6.91,0,*4C
1528362434.72,26099,20.31,74344.8,16.29,6.97,7.01,0,*4B
1528362435.99,26100,20.31,74350.5,16.29,7.11,7.19,0,*4C
1528362437.23,26101,20.31,74350.0,16.27,7.69,7.77,0,*44
1528362438.44,26102,20.31,74350.0,16.27,8.05,8.13,0,*4F
1528362439.65,26103,20.31,74346.5,16.29,7.97,7.97,0,*47
1528362440.89,26104,20.31,74346.3,16.31,7.73,7.73,0,*49
1528362442.11,26105,20.31,74348.0,16.31,7.79,7.69,0,*49
1528362443.3,26106,20.31,74346.5,16.31,7.51,7.59,0,*43
1528362444.52,26107,20.31,74348.3,16.33,8.19,8.19,0,*48
1528362445.78,26108,20.31,74350.8,16.33,7.83,7.65,0,*4F
1528362447.01,26109,20.31,74348.8,16.39,7.77,7.65,0,*4F
1528362448.22,26110,20.31,74350.0,16.39,8.33,8.23,0,*45
1528362449.48,26111,20.31,74348.0,16.41,8.47,8.41,0,*4C
1528362450.72,26112,20.31,74348.8,16.41,8.05,7.95,0,*4F
1528362451.96,26113,20.31,74346.5,16.43,7.95,7.73,0,*42
1528362453.16,26114,20.31,74350.0,16.45,8.19,8.15,0,*47
1528362454.35,26115,20.31,74348.5,16.45,8.15,7.97,0,*4F
1528362455.58,26116,20.31,74348.3,16.45,8.33,8.29,0,*42
1528362456.85,26117,20.31,74348.5,16.47,9.01,9.01,0,*4A
1528362458.03,26118,20.31,74350.0,16.49,9.29,9.29,0,*4B
1528362459.27,26119,20.31,74346.5,16.51,8.89,8.79,0,*4C
1528362460.51,26120,20.31,74350.0,16.51,8.71,8.61,0,*48
1528362461.72,26121,20.31,74346.0,16.53,9.03,8.93,0,*42
1528362462.96,26122,20.31,74352.3,16.59,8.97,8.87,0,*42
1528362464.19,26123,20.31,74350.5,16.59,8.69,8.59,0,*41
1528362465.4,26124,20.31,74348.3,16.63,8.27,8.05,0,*4C
1528362466.64,26125,20.31,74346.5,16.63,8.89,8.83,0,*47
1528362467.87,26126,20.31,74348.8,16.63,8.89,8.83,0,*44
1528362469.1,26127,20.31,74344.8,16.67,8.45,8.33,0,*4A
1528362470.33,26128,20.31,74348.5,16.67,8.75,8.69,0,*49
1528362471.57,26129,20.31,74346.0,16.67,8.45,8.33,0,*44
1528362472.83,26130,20.31,74348.8,16.67,8.59,8.59,0,*4D
1528362474.09,26131,20.31,74348.5,16.67,8.75,8.75,0,*4C
1528362475.27,26132,20.31,74348.3,16.69,8.83,8.79,0,*44
1528362476.52,26133,20.31,74350.0,16.71,8.71,8.71,0,*49
1528362477.72,26134,20.31,74348.0,16.73,8.29,8.09,0,*4E
1528362478.94,26135,20.31,74350.3,16.75,8.19,8.27,0,*46
1528362480.17,26136,20.31,74348.3,16.73,8.41,8.41,0,*4E
1528362481.41,26137,20.31,74348.5,16.73,8.41,8.41,0,*4F
1528362482.59,26138,20.31,74348.0,16.73,8.15,8.09,0,*4D
1528362483.77,26139,20.31,74350.3,16.73,7.97,8.05,0,*45
1528362485.0,26140,20.31,74348.8,16.73,7.83,7.87,0,*4B
1528362486.18,26141,20.31,74350.3,16.73,8.05,8.15,0,*4F
1528362487.36,26142,20.31,74348.8,16.73,8.05,8.19,0,*40
1528362488.61,26143,20.31,74348.0,16.75,7.73,7.87,0,*41
1528362489.82,26144,20.31,74346.8,16.73,7.51,7.47,0,*4C
1528362491.05,26145,20.31,74348.5,16.73,7.19,7.27,0,*47
1528362492.27,26146,20.31,74348.5,16.69,7.11,7.11,0,*42
1528362493.53,26147,20.31,74346.3,16.71,7.23,7.23,0,*4A
1528362494.72,26148,20.31,74352.5,16.69,7.55,7.55,0,*4C
1528362495.92,26149,20.31,74350.8,16.65,7.79,7.87,0,*40
1528362497.16,26150,20.31,74348.5,16.67,7.77,7.79,0,*45
1528362498.4,26151,20.31,74346.8,16.65,7.77,7.77,0,*48
1528362499.63,26152,20.31,74350.0,16.65,7.83,7.87,0,*4F
1528362500.81,26153,20.31,74348.8,16.65,8.09,8.27,0,*46
1528362502.05,26154,20.31,74348.3,16.67,8.13,8.23,0,*4C
1528362503.26,26155,20.31,74348.0,16.67,7.97,7.97,0,*4E
1528362504.5,26156,20.31,74348.8,16.65,7.73,7.77,0,*4B
1528362505.73,26157,20.31,74350.0,16.65,7.69,7.77,0,*41
1528362506.94,26158,20.31,74350.3,16.65,7.95,7.97,0,*43
1528362508.11,26159,20.31,74348.8,16.65,7.97,8.09,0,*48
1528362509.34,26160,20.31,74348.8,16.65,7.83,7.87,0,*4E
1528362510.52,26161,20.31,74346.8,16.65,7.05,7.09,0,*47
1528362511.73,26162,20.31,74348.8,16.61,7.79,7.95,0,*4E
1528362512.92,26163,20.31,74350.3,16.65,7.37,7.29,0,*46
1528362514.12,26164,20.31,74350.3,16.61,7.59,7.65,0,*45
1528362515.35,26165,20.31,74348.0,16.63,7.69,7.79,0,*48
1528362516.53,26166,20.31,74348.8,16.61,7.37,7.45,0,*4D
1528362517.74,26167,20.31,74348.3,16.61,7.27,7.33,0,*4C
1528362518.95,26168,20.31,74350.8,16.59,7.55,7.55,0,*4D
1528362520.21,26169,20.31,74348.0,16.59,7.19,7.23,0,*45
1528362521.44,26170,20.31,74348.0,16.55,7.29,7.47,0,*40